FW2000 Weather Reports


time (UTC)temp
C
wind
direction
speed
KPH
gust
KPH
rain 1hr
cm
rain 24hr
cm
rain mn
cm
humidity
%
barometer
mb
20260507043058 13 249 0.0 0.0 0.00 0.00 0.00 81 1020.7
20260507042559 13 249 0.0 3.2 0.00 0.00 0.00 80 1020.7
20260507042101 14 249 0.0 3.2 0.00 0.00 0.00 80 1020.7
20260507041606 14 249 0.0 3.2 0.00 0.00 0.00 80 1020.7
20260507041058 14 249 0.0 3.2 0.00 0.00 0.00 80 1020.5
20260507040558 14 244 0.0 1.6 0.00 0.00 0.00 80 1020.5
20260507040106 14 244 0.0 3.2 0.00 0.00 0.00 79 1020.5
20260507035557 14 244 0.0 3.2 0.00 0.00 0.00 79 1020.4
20260507035058 14 242 0.0 4.8 0.00 0.00 0.00 79 1020.4
20260507034619 14 243 1.6 4.8 0.00 0.00 0.00 79 1020.2
20260507034057 15 240 1.6 6.4 0.00 0.00 0.00 79 1020.2
20260507033557 15 238 1.6 6.4 0.00 0.00 0.00 78 1020.2
20260507033106 15 261 3.2 4.8 0.00 0.00 0.00 78 1020.1
20260507032557 15 247 1.6 6.4 0.00 0.00 0.00 78 1020.1
20260507032056 15 243 3.2 6.4 0.00 0.00 0.00 78 1020.1
20260507031556 15 246 1.6 6.4 0.00 0.00 0.00 78 1020.0
20260507031057 15 246 3.2 6.4 0.00 0.00 0.00 77 1020.0
20260507030556 15 251 3.2 8.0 0.00 0.00 0.00 76 1019.9
20260507025555 16 242 3.2 6.4 0.00 0.00 0.00 75 1019.8
20260507025055 16 254 3.2 12.9 0.00 0.00 0.00 74 1019.9
20260507024603 16 236 4.8 12.9 0.00 0.00 0.00 74 1019.7
20260507024055 16 267 3.2 6.4 0.00 0.00 0.00 73 1019.7
20260507023554 17 267 1.6 6.4 0.00 0.00 0.00 73 1019.6
20260507023053 17 256 1.6 6.4 0.00 0.00 0.00 72 1019.6
20260507022553 17 239 1.6 6.4 0.00 0.00 0.00 72 1019.6
20260507022054 17 286 3.2 8.0 0.00 0.00 0.00 71 1019.5
20260507021601 17 286 3.2 8.0 0.00 0.00 0.00 71 1019.5
20260507021053 17 277 1.6 11.3 0.00 0.00 0.00 70 1019.5
20260507020553 17 236 3.2 11.3 0.00 0.00 0.00 68 1019.6
20260507020052 18 270 1.6 8.0 0.00 0.00 0.00 68 1019.4
20260507015551 18 244 3.2 8.0 0.00 0.00 0.00 68 1019.5
20260507015050 18 245 1.6 14.5 0.00 0.00 0.00 68 1019.6
20260507014552 18 279 3.2 14.5 0.00 0.00 0.00 68 1019.5
20260507014051 18 290 3.2 11.3 0.00 0.00 0.00 67 1019.5
20260507013549 18 271 3.2 14.5 0.00 0.00 0.00 67 1019.5
20260507013103 18 296 4.8 14.5 0.00 0.00 0.00 68 1019.5
20260507012550 18 233 4.8 11.3 0.00 0.00 0.00 67 1019.5
20260507012050 18 233 3.2 11.3 0.00 0.00 0.00 67 1019.5
20260507011550 18 205 3.2 6.4 0.00 0.00 0.00 65 1019.5
20260507011050 19 246 3.2 17.7 0.00 0.00 0.00 65 1019.5
20260507010549 19 277 4.8 17.7 0.00 0.00 0.00 65 1019.7
20260507010052 19 287 1.6 11.3 0.00 0.00 0.00 65 1019.6
20260507005551 19 234 4.8 11.3 0.00 0.00 0.00 65 1019.6
20260507005049 20 248 3.2 14.5 0.00 0.00 0.00 65 1019.6
20260507004548 20 286 4.8 14.5 0.00 0.00 0.00 63 1019.6
20260507004048 20 248 3.2 11.3 0.00 0.00 0.00 63 1019.6
20260507003548 20 271 3.2 12.9 0.00 0.00 0.00 63 1019.5
20260507003046 20 288 1.6 12.9 0.00 0.00 0.00 64 1019.5
20260507002546 20 278 4.8 14.5 0.00 0.00 0.00 63 1019.5
20260507002047 20 299 4.8 14.5 0.00 0.00 0.00 63 1019.6
20260507001606 20 289 4.8 12.9 0.00 0.00 0.00 64 1019.7
20260507001045 20 271 3.2 12.9 0.00 0.00 0.00 63 1019.5
20260507000545 19 271 4.8 11.3 0.00 0.00 0.00 65 1019.6
20260507000044 19 244 3.2 14.5 0.00 0.00 0.00 64 1019.6
20260506235543 20 233 4.8 14.5 0.00 0.00 0.00 62 1019.6
20260506235043 20 278 6.4 16.1 0.00 0.00 0.00 62 1019.7
20260506234552 20 292 4.8 16.1 0.00 0.00 0.00 63 1019.7
20260506234042 20 281 6.4 14.5 0.00 0.00 0.00 62 1019.8
20260506233542 20 293 6.4 14.5 0.00 0.00 0.00 61 1019.8
20260506233041 20 283 6.4 14.5 0.00 0.00 0.00 62 1019.8
20260506232540 20 246 3.2 14.5 0.00 0.00 0.00 63 1019.7
20260506232040 20 262 3.2 14.5 0.00 0.00 0.00 63 1019.7
20260506231539 20 286 8.0 14.5 0.00 0.00 0.00 62 1019.9
20260506231039 20 269 3.2 12.9 0.00 0.00 0.00 65 1019.8
20260506230538 20 263 4.8 16.1 0.00 0.00 0.00 63 1020.0
20260506230036 20 294 6.4 16.1 0.00 0.00 0.00 63 1020.0
20260506225536 20 240 6.4 12.9 0.00 0.00 0.00 64 1020.1
20260506225038 20 240 4.8 14.5 0.00 0.00 0.00 63 1020.1
20260506224542 20 296 4.8 14.5 0.00 0.00 0.00 63 1020.2
20260506224034 20 292 6.4 16.1 0.00 0.00 0.00 63 1020.2
20260506223534 19 243 4.8 17.7 0.00 0.00 0.00 64 1020.3
20260506223034 19 248 4.8 17.7 0.00 0.00 0.00 62 1020.4
20260506222536 20 298 4.8 12.9 0.00 0.00 0.00 63 1020.4
20260506222034 20 282 3.2 14.5 0.00 0.00 0.00 64 1020.4
20260506221532 20 288 8.0 14.5 0.00 0.00 0.00 64 1020.5
20260506221032 19 278 3.2 12.9 0.00 0.00 0.00 66 1020.5
20260506220530 19 236 3.2 12.9 0.00 0.00 0.00 69 1020.5
20260506220035 19 280 4.8 14.5 0.00 0.00 0.00 65 1020.6
20260506215529 19 271 4.8 12.9 0.00 0.00 0.00 64 1020.6
20260506215029 19 281 4.8 14.5 0.00 0.00 0.00 64 1020.8
20260506214528 19 300 4.8 14.5 0.00 0.00 0.00 64 1020.8
20260506214030 19 229 4.8 16.1 0.00 0.00 0.00 64 1020.9
20260506213527 18 280 6.4 17.7 0.00 0.00 0.00 65 1021.0
20260506213027 19 271 6.4 17.7 0.00 0.00 0.00 65 1021.0
20260506212527 18 319 4.8 12.9 0.00 0.00 0.00 65 1021.1
20260506212027 18 279 4.8 19.3 0.00 0.00 0.00 66 1021.0
20260506211526 18 271 4.8 14.5 0.00 0.00 0.00 64 1021.1
20260506211026 19 240 6.4 11.3 0.00 0.00 0.00 63 1021.1
20260506210525 18 236 3.2 11.3 0.00 0.00 0.00 68 1021.2
20260506210025 18 244 4.8 11.3 0.00 0.00 0.00 62 1021.2
20260506205523 19 257 4.8 12.9 0.00 0.00 0.00 65 1021.3
20260506205022 19 246 1.6 9.7 0.00 0.00 0.00 68 1021.3
20260506204523 18 211 3.2 12.9 0.00 0.00 0.00 65 1021.3
20260506204020 18 275 4.8 12.9 0.00 0.00 0.00 65 1021.3
20260506203520 18 248 3.2 12.9 0.00 0.00 0.00 67 1021.4
20260506203020 18 240 4.8 12.9 0.00 0.00 0.00 66 1021.4
20260506202523 18 231 3.2 8.0 0.00 0.00 0.00 69 1021.4
20260506202020 18 260 1.6 9.7 0.00 0.00 0.00 69 1021.5
20260506201520 18 290 4.8 11.3 0.00 0.00 0.00 65 1021.5
20260506201021 18 234 4.8 11.3 0.00 0.00 0.00 70 1021.6
20260506200519 18 303 4.8 14.5 0.00 0.00 0.00 65 1021.7
20260506200019 18 271 6.4 14.5 0.00 0.00 0.00 66 1021.6
20260506195518 18 288 3.2 14.5 0.00 0.00 0.00 70 1021.7
20260506195017 18 259 4.8 12.9 0.00 0.00 0.00 69 1021.8
20260506194526 18 259 1.6 11.3 0.00 0.00 0.00 68 1021.7
20260506194018 18 291 1.6 11.3 0.00 0.00 0.00 67 1021.8
20260506193516 18 208 4.8 11.3 0.00 0.00 0.00 68 1021.8
20260506193014 17 290 3.2 12.9 0.00 0.00 0.00 69 1022.0
20260506192514 17 216 4.8 12.9 0.00 0.00 0.00 66 1022.0
20260506192013 17 290 1.6 12.9 0.00 0.00 0.00 68 1022.1
20260506191513 17 200 3.2 12.9 0.00 0.00 0.00 65 1022.1
20260506191012 17 244 3.2 16.1 0.00 0.00 0.00 66 1022.1
20260506190512 17 223 4.8 16.1 0.00 0.00 0.00 67 1022.4
20260506190011 17 287 3.2 12.9 0.00 0.00 0.00 70 1022.3
20260506185510 17 214 4.8 12.9 0.00 0.00 0.00 70 1022.3
20260506185009 17 224 1.6 8.0 0.00 0.00 0.00 71 1022.3
20260506184509 17 216 4.8 14.5 0.00 0.00 0.00 68 1022.3
20260506184008 16 236 8.0 14.5 0.00 0.00 0.00 68 1022.2
20260506183508 16 217 1.6 11.3 0.00 0.00 0.00 70 1022.3
20260506183008 16 244 4.8 12.9 0.00 0.00 0.00 67 1022.2
20260506182506 16 289 3.2 12.9 0.00 0.00 0.00 65 1022.2
20260506182006 16 281 3.2 9.7 0.00 0.00 0.00 66 1022.4
20260506181506 16 209 3.2 9.7 0.00 0.00 0.00 64 1022.3
20260506181005 16 296 3.2 8.0 0.00 0.00 0.00 68 1022.2
20260506180505 16 269 3.2 8.0 0.00 0.00 0.00 68 1022.2
20260506180005 17 272 3.2 9.7 0.00 0.00 0.00 65 1022.2
20260506175505 17 291 1.6 9.7 0.00 0.00 0.00 65 1022.3
20260506175004 16 321 3.2 8.0 0.00 0.00 0.00 65 1022.3
20260506174502 16 239 0.0 4.8 0.00 0.00 0.00 67 1022.2
20260506174002 16 244 1.6 6.4 0.00 0.00 0.00 65 1022.2
20260506173504 16 301 1.6 6.4 0.00 0.00 0.00 68 1022.3
20260506173001 16 295 0.0 4.8 0.00 0.00 0.00 70 1022.2
20260506172600 16 290 1.6 4.8 0.00 0.00 0.00 68 1022.3
20260506172100 16 313 1.6 4.8 0.00 0.00 0.00 69 1022.2
20260506171608 16 19 0.0 4.8 0.00 0.00 0.00 67 1022.2
20260506171059 16 28 1.6 6.4 0.00 0.00 0.00 69 1022.2
20260506170558 16 38 3.2 8.0 0.00 0.00 0.00 66 1022.4
20260506170107 16 15 1.6 8.0 0.00 0.00 0.00 70 1022.4
20260506165558 16 25 1.6 4.8 0.00 0.03 0.00 72 1022.4
20260506165056 16 302 1.6 4.8 0.00 0.03 0.00 71 1022.4
20260506164553 15 59 0.0 6.4 0.00 0.03 0.00 71 1022.4
20260506164051 15 78 1.6 8.0 0.00 0.03 0.00 72 1022.4
20260506163550 15 14 1.6 8.0 0.00 0.03 0.00 74 1022.4
20260506163049 15 71 0.0 8.0 0.00 0.03 0.00 71 1022.4
20260506162547 15 81 1.6 9.7 0.00 0.03 0.00 75 1022.4
20260506162048 15 20 1.6 8.0 0.00 0.03 0.00 73 1022.3
20260506161546 15 77 1.6 8.0 0.00 0.03 0.00 74 1022.3
20260506161044 15 32 3.2 8.0 0.00 0.03 0.00 75 1022.4
20260506160543 14 29 3.2 6.4 0.00 0.03 0.00 75 1022.4
20260506160048 13 40 0.0 3.2 0.00 0.03 0.00 73 1022.4
20260506155540 14 17 0.0 6.4 0.00 0.03 0.00 75 1022.5
20260506155039 14 29 1.6 6.4 0.00 0.03 0.00 76 1022.5
20260506154538 13 28 3.2 6.4 0.00 0.03 0.00 76 1022.5
20260506154036 13 65 1.6 4.8 0.00 0.03 0.00 77 1022.5
20260506153535 13 60 0.0 6.4 0.00 0.03 0.00 75 1022.6
20260506153033 13 61 3.2 9.7 0.00 0.03 0.00 76 1022.5
20260506152532 13 74 1.6 11.3 0.00 0.03 0.00 77 1022.6
20260506152030 13 92 3.2 8.0 0.00 0.03 0.00 79 1022.6
20260506151530 12 60 1.6 8.0 0.00 0.03 0.00 75 1022.6
20260506151028 12 62 3.2 6.4 0.00 0.03 0.00 77 1022.7
20260506150527 12 62 3.2 6.4 0.00 0.03 0.00 79 1022.6
20260506150025 12 71 1.6 6.4 0.00 0.03 0.00 78 1022.6
20260506145522 12 98 3.2 6.4 0.00 0.05 0.00 79 1022.6
20260506145021 12 74 1.6 6.4 0.00 0.05 0.00 81 1022.7
20260506144519 11 53 1.6 6.4 0.00 0.05 0.00 81 1022.7
20260506144018 11 96 1.6 6.4 0.00 0.05 0.00 82 1022.7
20260506143517 11 38 1.6 6.4 0.00 0.05 0.00 83 1022.5
20260506143015 11 85 3.2 6.4 0.00 0.05 0.00 84 1022.5
20260506142513 11 63 1.6 6.4 0.00 0.05 0.00 85 1022.5
20260506142013 11 52 1.6 4.8 0.00 0.05 0.00 86 1022.3
20260506141511 10 82 1.6 4.8 0.00 0.05 0.00 88 1022.2
20260506141009 10 61 1.6 6.4 0.00 0.05 0.00 88 1022.2
20260506140508 10 71 1.6 4.8 0.00 0.05 0.00 88 1022.2
20260506140005 10 73 3.2 6.4 0.00 0.08 0.00 89 1022.1
20260506135504 10 72 1.6 6.4 0.00 0.08 0.00 89 1022.0
20260506135002 10 76 3.2 6.4 0.00 0.08 0.00 89 1022.0
20260506134502 9 74 1.6 6.4 0.00 0.08 0.00 90 1022.0
20260506134100 9 74 3.2 4.8 0.00 0.08 0.00 90 1021.9
20260506133559 9 74 1.6 6.4 0.00 0.08 0.00 89 1021.9
20260506133113 9 76 3.2 6.4 0.00 0.08 0.00 89 1021.9
20260506132557 9 77 3.2 6.4 0.00 0.08 0.00 89 1022.0
20260506132056 9 61 1.6 4.8 0.00 0.08 0.00 89 1021.9
20260506131603 9 54 3.2 6.4 0.00 0.08 0.00 89 1021.9
20260506131056 9 53 3.2 6.4 0.00 0.08 0.00 89 1021.9
20260506130555 9 55 3.2 6.4 0.00 0.08 0.00 89 1021.8
20260506130057 9 76 3.2 4.8 0.00 0.08 0.00 89 1021.8
20260506125553 9 80 1.6 4.8 0.00 0.08 0.00 89 1021.8
20260506125053 9 80 3.2 6.4 0.00 0.08 0.00 89 1021.7
20260506124559 9 80 3.2 6.4 0.00 0.08 0.00 89 1021.7
20260506124053 9 83 3.2 4.8 0.00 0.08 0.00 89 1021.7
20260506123553 9 83 1.6 4.8 0.00 0.08 0.00 89 1021.5
20260506123053 9 83 1.6 6.4 0.00 0.08 0.00 89 1021.7
20260506122553 9 84 1.6 6.4 0.00 0.08 0.00 89 1021.6
20260506122052 9 82 3.2 6.4 0.00 0.08 0.00 89 1021.5
20260506121553 9 82 3.2 8.0 0.00 0.08 0.00 90 1021.6
20260506121052 9 82 3.2 6.4 0.00 0.08 0.00 90 1021.4
20260506120556 9 83 3.2 4.8 0.00 0.08 0.00 90 1021.5
20260506120052 9 83 1.6 9.7 0.00 0.08 0.00 91 1021.5
20260506115552 9 83 3.2 9.7 0.00 0.10 0.00 91 1021.4
20260506115051 9 84 3.2 6.4 0.00 0.10 0.00 91 1021.7
20260506114553 9 90 3.2 6.4 0.00 0.10 0.00 91 1021.5
20260506114051 9 86 3.2 6.4 0.00 0.10 0.00 91 1021.4
20260506113552 9 87 3.2 6.4 0.00 0.10 0.00 92 1021.5
20260506113051 9 90 3.2 6.4 0.00 0.10 0.00 92 1021.5
20260506112555 8 84 3.2 6.4 0.00 0.10 0.00 92 1021.4
20260506112050 8 84 3.2 6.4 0.00 0.10 0.00 92 1021.5
20260506111550 8 86 3.2 6.4 0.00 0.10 0.00 92 1021.4
20260506111049 8 86 3.2 6.4 0.00 0.10 0.00 92 1021.4
20260506110551 8 86 3.2 6.4 0.00 0.10 0.00 92 1021.4
20260506110049 8 99 1.6 4.8 0.00 0.10 0.00 92 1021.3
20260506105549 8 100 3.2 4.8 0.00 0.13 0.00 92 1021.3
20260506105051 8 107 3.2 4.8 0.00 0.13 0.00 92 1021.3
20260506104550 8 159 1.6 4.8 0.00 0.13 0.00 92 1021.4
20260506104048 8 198 1.6 3.2 0.00 0.13 0.00 92 1021.3
20260506103547 8 198 0.0 3.2 0.00 0.13 0.00 92 1021.4
20260506103047 8 198 0.0 4.8 0.00 0.13 0.00 92 1021.4
20260506102547 8 198 1.6 4.8 0.00 0.13 0.00 92 1021.4
20260506102047 8 199 1.6 4.8 0.00 0.13 0.00 92 1021.3
20260506101547 8 200 1.6 4.8 0.00 0.13 0.00 92 1021.2
20260506101046 8 200 1.6 4.8 0.00 0.13 0.00 92 1021.2
20260506100547 8 200 1.6 6.4 0.00 0.13 0.00 92 1021.2
20260506100046 8 202 1.6 6.4 0.00 0.13 0.00 92 1021.1
20260506095547 8 203 1.6 3.2 0.00 0.18 0.00 92 1021.2
20260506095045 8 267 0.0 1.6 0.00 0.18 0.00 92 1021.1
20260506094601 8 267 0.0 0.0 0.00 0.18 0.00 92 1021.0
20260506094045 8 267 0.0 1.6 0.00 0.18 0.00 92 1021.0
20260506093544 8 267 0.0 3.2 0.00 0.18 0.00 92 1021.0
20260506093044 8 267 0.0 3.2 0.00 0.18 0.00 92 1020.9
20260506092545 8 267 0.0 3.2 0.00 0.18 0.00 92 1020.9
20260506092045 8 267 0.0 4.8 0.00 0.18 0.00 92 1020.8
20260506091546 8 267 0.0 4.8 0.00 0.18 0.00 92 1020.9
20260506091044 8 256 1.6 4.8 0.00 0.18 0.00 91 1020.8
20260506090543 8 254 1.6 4.8 0.00 0.18 0.00 91 1020.9
20260506090043 8 322 1.6 4.8 0.00 0.18 0.00 91 1020.7
20260506085542 8 322 1.6 4.8 0.00 0.25 0.00 91 1020.7
20260506085043 8 323 0.0 4.8 0.00 0.25 0.00 91 1020.6
20260506084544 8 292 1.6 4.8 0.00 0.25 0.00 91 1020.5
20260506084041 8 290 1.6 4.8 0.00 0.25 0.00 91 1020.5
20260506083543 8 289 1.6 6.4 0.00 0.25 0.00 91 1020.3
20260506083041 8 289 3.2 6.4 0.00 0.25 0.00 91 1020.3
20260506082539 8 252 1.6 4.8 0.00 0.25 0.00 91 1020.4
20260506082039 8 186 0.0 3.2 0.00 0.25 0.00 90 1020.4
20260506081539 8 186 0.0 4.8 0.00 0.25 0.00 90 1020.5
20260506081038 9 186 0.0 4.8 0.00 0.25 0.00 90 1020.5
20260506080537 9 181 0.0 3.2 0.00 0.25 0.00 91 1020.7
20260506073032 10 111 1.6 6.4 0.00 0.33 0.00 90 1021.7
20260506072534 10 35 3.2 6.4 0.00 0.33 0.00 90 1021.9
20260506072030 10 77 1.6 3.2 0.00 0.33 0.00 89 1021.4
20260506071531 10 77 0.0 3.2 0.00 0.33 0.00 89 1021.2
20260506071027 10 77 1.6 3.2 0.00 0.33 0.00 89 1021.1
20260506070526 9 91 0.0 3.2 0.00 0.33 0.00 90 1021.0
20260506062023 9 36 1.6 4.8 0.00 0.38 0.33 90 1020.4
20260506061523 9 325 0.0 3.2 0.00 0.38 0.33 89 1020.4
20260506061024 9 283 0.0 1.6 0.00 0.38 0.33 90 1020.4
20260506060527 9 283 0.0 1.6 0.00 0.38 0.33 90 1020.3
20260506051020 10 283 0.0 1.6 0.00 0.38 0.33 89 1020.1
20260506050518 10 284 0.0 1.6 0.00 0.38 0.33 89 1019.9
20260506045015 10 285 0.0 1.6 0.00 0.38 0.33 89 1019.8
20260506044516 10 285 0.0 1.6 0.00 0.38 0.33 89 1019.6
20260506044015 10 285 0.0 1.6 0.00 0.38 0.33 89 1019.6
20260506043515 10 285 0.0 0.0 0.00 0.38 0.33 89 1019.7